Time,TemperatureF,DewpointF,PressureIn,WindDirection,WindDirectionDegrees,WindSpeedMPH,WindSpeedGustMPH,Humidity,HourlyPrecipIn,Conditions,Clouds,dailyrainin,SolarRadiationWatts/m^2,SoftwareType,DateUTC
2013-08-27 00:03:00,55.9,33.2,29.84,NW,305,2.0,4.0,42,0.00,,,0.00,0,WeatherCatV1.21B27,2013-08-27 07:03:00,
2013-08-27 00:08:00,55.7,31.1,29.84,NNW,341,3.0,6.0,39,0.00,,,0.00,0,WeatherCatV1.21B27,2013-08-27 07:08:00,
2013-08-27 00:13:00,55.7,32.4,29.84,NW,314,0.0,1.0,41,0.00,,,0.00,0,WeatherCatV1.21B27,2013-08-27 07:13:00,
2013-08-27 00:18:00,55.7,30.5,29.83,West,274,5.0,5.0,38,0.00,,,0.00,0,WeatherCatV1.21B27,2013-08-27 07:18:00,
2013-08-27 00:23:00,55.7,31.1,29.83,West,278,0.0,2.0,39,0.00,,,0.00,0,WeatherCatV1.21B27,2013-08-27 07:23:00,
2013-08-27 00:28:00,55.6,31.0,29.83,West,278,1.0,4.0,39,0.00,,,0.00,0,WeatherCatV1.21B27,2013-08-27 07:28:00,
2013-08-27 00:33:00,55.6,31.7,29.83,West,278,2.0,2.0,40,0.00,,,0.00,0,WeatherCatV1.21B27,2013-08-27 07:33:00,
2013-08-27 00:38:00,55.4,30.9,29.83,West,278,0.0,0.0,39,0.00,,,0.00,0,WeatherCatV1.21B27,2013-08-27 07:38:00,
2013-08-27 00:43:00,55.4,30.9,29.83,West,278,0.0,0.0,39,0.00,,,0.00,0,WeatherCatV1.21B27,2013-08-27 07:43:00,
2013-08-27 00:48:00,55.3,30.1,29.84,West,278,2.0,4.0,38,0.00,,,0.00,0,WeatherCatV1.21B27,2013-08-27 07:48:00,
2013-08-27 00:53:00,55.1,30.6,29.84,SW,225,0.0,2.0,39,0.00,,,0.00,0,WeatherCatV1.21B27,2013-08-27 07:53:00,
2013-08-27 00:58:00,55.1,30.6,29.84,SW,226,0.0,0.0,39,0.00,,,0.00,0,WeatherCatV1.21B27,2013-08-27 07:58:00,
2013-08-27 01:03:00,55.0,30.5,29.84,SW,226,0.0,0.0,39,0.00,,,0.00,0,WeatherCatV1.21B27,2013-08-27 08:03:00,
2013-08-27 01:08:00,54.8,29.7,29.84,West,264,3.0,4.0,38,0.00,,,0.00,0,WeatherCatV1.21B27,2013-08-27 08:08:00,
2013-08-27 01:13:00,54.8,30.3,29.84,West,264,3.0,4.0,39,0.00,,,0.00,0,WeatherCatV1.21B27,2013-08-27 08:13:00,
2013-08-27 01:18:00,55.0,29.9,29.81,WNW,293,0.0,5.0,38,0.00,,,0.00,0,WeatherCatV1.21B27,2013-08-27 08:18:00,
2013-08-27 01:23:00,55.0,30.5,29.81,WNW,293,0.0,0.0,39,0.00,,,0.00,0,WeatherCatV1.21B27,2013-08-27 08:23:00,
2013-08-27 01:28:00,55.0,29.9,29.81,WNW,293,2.0,2.0,38,0.00,,,0.00,0,WeatherCatV1.21B27,2013-08-27 08:28:00,
2013-08-27 01:33:00,55.0,27.9,29.81,WNW,288,0.0,3.0,35,0.00,,,0.00,0,WeatherCatV1.21B27,2013-08-27 08:33:00,
2013-08-27 01:38:00,55.1,28.6,29.81,WNW,293,2.0,4.0,36,0.00,,,0.00,0,WeatherCatV1.21B27,2013-08-27 08:38:00,
2013-08-27 01:43:00,55.1,30.0,29.81,WSW,238,1.0,4.0,38,0.00,,,0.00,0,WeatherCatV1.21B27,2013-08-27 08:43:00,
2013-08-27 01:48:00,55.1,28.6,29.81,WSW,237,2.0,3.0,36,0.00,,,0.00,0,WeatherCatV1.21B27,2013-08-27 08:48:00,
2013-08-27 01:53:00,55.1,28.0,29.81,NW,320,3.0,5.0,35,0.00,,,0.00,0,WeatherCatV1.21B27,2013-08-27 08:53:00,
2013-08-27 01:58:00,55.3,27.4,29.81,NNW,330,3.0,4.0,34,0.00,,,0.00,0,WeatherCatV1.21B27,2013-08-27 08:58:00,
2013-08-27 02:03:00,55.1,27.2,29.80,NNW,335,3.0,5.0,34,0.00,,,0.00,0,WeatherCatV1.21B27,2013-08-27 09:03:00,
2013-08-27 02:08:00,55.0,27.1,29.80,NW,320,1.0,5.0,34,0.00,,,0.00,0,WeatherCatV1.21B27,2013-08-27 09:08:00,
2013-08-27 02:13:00,55.0,27.9,29.80,NNW,337,3.0,4.0,35,0.00,,,0.00,0,WeatherCatV1.21B27,2013-08-27 09:13:00,
2013-08-27 02:18:00,54.8,27.7,29.80,NW,323,0.0,5.0,35,0.00,,,0.00,0,WeatherCatV1.21B27,2013-08-27 09:18:00,
2013-08-27 02:23:00,54.8,27.0,29.80,NW,304,1.0,5.0,34,0.00,,,0.00,0,WeatherCatV1.21B27,2013-08-27 09:23:00,
2013-08-27 02:28:00,54.8,27.7,29.80,SW,232,3.0,4.0,35,0.00,,,0.00,0,WeatherCatV1.21B27,2013-08-27 09:28:00,
2013-08-27 02:33:00,54.8,26.3,29.80,WNW,293,0.0,4.0,33,0.00,,,0.00,0,WeatherCatV1.21B27,2013-08-27 09:33:00,
2013-08-27 02:38:00,54.8,27.0,29.80,NW,312,0.0,0.0,34,0.00,,,0.00,0,WeatherCatV1.21B27,2013-08-27 09:38:00,
2013-08-27 02:43:00,54.8,24.8,29.80,WNW,302,3.0,4.0,31,0.00,,,0.00,0,WeatherCatV1.21B27,2013-08-27 09:43:00,
2013-08-27 02:48:00,55.1,25.0,29.80,WNW,303,0.0,0.0,31,0.00,,,0.00,0,WeatherCatV1.21B27,2013-08-27 09:48:00,
2013-08-27 02:53:00,55.1,25.0,29.80,NW,307,0.0,4.0,31,0.00,,,0.00,0,WeatherCatV1.21B27,2013-08-27 09:53:00,
2013-08-27 02:58:00,55.3,24.4,29.80,NW,314,3.0,6.0,30,0.00,,,0.00,0,WeatherCatV1.21B27,2013-08-27 09:58:00,
2013-08-27 03:03:00,55.4,24.5,29.80,NW,314,0.0,2.0,30,0.00,,,0.00,0,WeatherCatV1.21B27,2013-08-27 10:03:00,
2013-08-27 03:08:00,55.4,25.3,29.80,NW,314,1.0,4.0,31,0.00,,,0.00,0,WeatherCatV1.21B27,2013-08-27 10:08:00,
2013-08-27 03:13:00,55.4,25.3,29.80,NW,314,0.0,4.0,31,0.00,,,0.00,0,WeatherCatV1.21B27,2013-08-27 10:13:00,
2013-08-27 03:18:00,55.3,24.4,29.81,NW,314,0.0,2.0,30,0.00,,,0.00,0,WeatherCatV1.21B27,2013-08-27 10:18:00,
2013-08-27 03:23:00,55.3,25.2,29.81,NW,306,0.0,3.0,31,0.00,,,0.00,0,WeatherCatV1.21B27,2013-08-27 10:23:00,
2013-08-27 03:28:00,55.3,25.2,29.81,NW,305,3.0,4.0,31,0.00,,,0.00,0,WeatherCatV1.21B27,2013-08-27 10:28:00,
2013-08-27 03:33:00,55.1,25.0,29.81,NW,315,3.0,3.0,31,0.00,,,0.00,0,WeatherCatV1.21B27,2013-08-27 10:33:00,
2013-08-27 03:38:00,55.0,25.7,29.81,NW,316,0.0,0.0,32,0.00,,,0.00,0,WeatherCatV1.21B27,2013-08-27 10:38:00,
2013-08-27 03:43:00,55.0,24.9,29.81,NW,316,0.0,0.0,31,0.00,,,0.00,0,WeatherCatV1.21B27,2013-08-27 10:43:00,
2013-08-27 03:48:00,54.8,25.5,29.81,NW,316,0.0,2.0,32,0.00,,,0.00,0,WeatherCatV1.21B27,2013-08-27 10:48:00,
2013-08-27 03:53:00,55.0,24.9,29.81,NW,316,0.0,1.0,31,0.00,,,0.00,0,WeatherCatV1.21B27,2013-08-27 10:53:00,
2013-08-27 03:58:00,55.0,24.9,29.81,WNW,302,5.0,5.0,31,0.00,,,0.00,0,WeatherCatV1.21B27,2013-08-27 10:58:00,
2013-08-27 04:03:00,55.0,24.9,29.80,WNW,301,0.0,5.0,31,0.00,,,0.00,0,WeatherCatV1.21B27,2013-08-27 11:03:00,
2013-08-27 04:08:00,55.0,24.9,29.80,NW,326,0.0,2.0,31,0.00,,,0.00,0,WeatherCatV1.21B27,2013-08-27 11:08:00,
2013-08-27 04:13:00,55.0,25.7,29.80,NW,326,0.0,0.0,32,0.00,,,0.00,0,WeatherCatV1.21B27,2013-08-27 11:13:00,
2013-08-27 04:18:00,54.8,25.5,29.80,NW,326,0.0,2.0,32,0.00,,,0.00,0,WeatherCatV1.21B27,2013-08-27 11:18:00,
2013-08-27 04:23:00,54.8,25.5,29.80,NW,326,1.0,2.0,32,0.00,,,0.00,0,WeatherCatV1.21B27,2013-08-27 11:23:00,
2013-08-27 04:28:00,54.7,26.2,29.80,NW,326,2.0,4.0,33,0.00,,,0.00,0,WeatherCatV1.21B27,2013-08-27 11:28:00,
2013-08-27 04:33:00,54.8,24.8,29.80,NW,326,0.0,3.0,31,0.00,,,0.00,0,WeatherCatV1.21B27,2013-08-27 11:33:00,
2013-08-27 04:38:00,54.7,25.4,29.80,NW,326,0.0,0.0,32,0.00,,,0.00,0,WeatherCatV1.21B27,2013-08-27 11:38:00,
2013-08-27 04:43:00,54.5,25.2,29.80,NW,326,2.0,4.0,32,0.00,,,0.00,0,WeatherCatV1.21B27,2013-08-27 11:43:00,
2013-08-27 04:48:00,54.7,24.7,29.80,NW,322,0.0,0.0,31,0.00,,,0.00,0,WeatherCatV1.21B27,2013-08-27 11:48:00,
2013-08-27 04:53:00,54.7,23.9,29.80,NNW,343,5.0,6.0,30,0.00,,,0.00,0,WeatherCatV1.21B27,2013-08-27 11:53:00,
2013-08-27 04:58:00,54.5,24.5,29.80,NNW,344,0.0,2.0,31,0.00,,,0.00,0,WeatherCatV1.21B27,2013-08-27 11:58:00,
2013-08-27 05:03:00,54.4,24.4,29.80,WSW,244,0.0,4.0,31,0.00,,,0.00,0,WeatherCatV1.21B27,2013-08-27 12:03:00,
2013-08-27 05:08:00,54.5,23.7,29.80,NNW,327,2.0,4.0,30,0.00,,,0.00,0,WeatherCatV1.21B27,2013-08-27 12:08:00,
2013-08-27 05:13:00,54.8,24.8,29.80,NNW,327,0.0,0.0,31,0.00,,,0.00,0,WeatherCatV1.21B27,2013-08-27 12:13:00,
2013-08-27 05:18:00,54.7,24.7,29.81,NW,326,0.0,0.0,31,0.00,,,0.00,0,WeatherCatV1.21B27,2013-08-27 12:18:00,
2013-08-27 05:23:00,54.5,24.5,29.81,NW,326,0.0,0.0,31,0.00,,,0.00,0,WeatherCatV1.21B27,2013-08-27 12:23:00,
2013-08-27 05:28:00,54.5,24.5,29.81,NW,326,0.0,0.0,31,0.00,,,0.00,0,WeatherCatV1.21B27,2013-08-27 12:28:00,
2013-08-27 05:33:00,54.4,24.4,29.82,WSW,248,0.0,0.0,31,0.00,,,0.00,0,WeatherCatV1.21B27,2013-08-27 12:33:00,
2013-08-27 05:38:00,54.4,24.4,29.82,WSW,248,0.0,0.0,31,0.00,,,0.00,0,WeatherCatV1.21B27,2013-08-27 12:38:00,
2013-08-27 05:43:00,54.4,25.2,29.82,SW,234,3.0,4.0,32,0.00,,,0.00,0,WeatherCatV1.21B27,2013-08-27 12:43:00,
2013-08-27 05:48:00,54.2,26.5,29.82,SSW,211,2.0,3.0,34,0.00,,,0.00,0,WeatherCatV1.21B27,2013-08-27 12:48:00,
2013-08-27 05:53:00,54.2,26.5,29.82,SSW,207,0.0,5.0,34,0.00,,,0.00,0,WeatherCatV1.21B27,2013-08-27 12:53:00,
2013-08-27 05:58:00,54.1,25.6,29.82,SSW,207,0.0,1.0,33,0.00,,,0.00,0,WeatherCatV1.21B27,2013-08-27 12:58:00,
2013-08-27 06:03:00,54.2,25.0,29.82,SSW,207,0.0,0.0,32,0.00,,,0.00,0,WeatherCatV1.21B27,2013-08-27 13:03:00,
2013-08-27 06:08:00,54.2,25.0,29.82,SSW,207,0.0,0.0,32,0.00,,,0.00,0,WeatherCatV1.21B27,2013-08-27 13:08:00,
2013-08-27 06:13:00,54.4,26.6,29.82,SSW,206,2.0,4.0,34,0.00,,,0.00,0,WeatherCatV1.21B27,2013-08-27 13:13:00,
2013-08-27 06:18:00,54.4,27.3,29.85,SSW,206,0.0,4.0,35,0.00,,,0.00,0,WeatherCatV1.21B27,2013-08-27 13:18:00,
2013-08-27 06:23:00,54.4,27.3,29.85,SSW,206,0.0,0.0,35,0.00,,,0.00,0,WeatherCatV1.21B27,2013-08-27 13:23:00,
2013-08-27 06:28:00,54.4,27.3,29.85,SSW,206,0.0,0.0,35,0.00,,,0.00,9,WeatherCatV1.21B27,2013-08-27 13:28:00,
2013-08-27 06:33:00,54.4,25.2,29.85,SSW,206,0.0,1.0,32,0.00,,,0.00,14,WeatherCatV1.21B27,2013-08-27 13:33:00,
2013-08-27 06:38:00,54.4,26.6,29.85,SSW,206,0.0,0.0,34,0.00,,,0.00,18,WeatherCatV1.21B27,2013-08-27 13:38:00,
2013-08-27 06:43:00,54.5,26.0,29.85,SSW,206,0.0,0.0,33,0.00,,,0.00,23,WeatherCatV1.21B27,2013-08-27 13:43:00,
2013-08-27 06:48:00,54.5,25.2,29.84,SSW,206,0.0,0.0,32,0.00,,,0.00,23,WeatherCatV1.21B27,2013-08-27 13:48:00,
2013-08-27 06:53:00,54.7,25.4,29.84,SSW,207,0.0,1.0,32,0.00,,,0.00,26,WeatherCatV1.21B27,2013-08-27 13:53:00,
2013-08-27 06:58:00,54.8,25.5,29.84,SW,217,0.0,1.0,32,0.00,,,0.00,32,WeatherCatV1.21B27,2013-08-27 13:58:00,
2013-08-27 07:03:00,54.8,26.3,29.84,SW,217,0.0,0.0,33,0.00,,,0.00,35,WeatherCatV1.21B27,2013-08-27 14:03:00,
2013-08-27 07:08:00,54.8,25.5,29.84,SW,218,0.0,0.0,32,0.00,,,0.00,40,WeatherCatV1.21B27,2013-08-27 14:08:00,
2013-08-27 07:13:00,54.8,26.3,29.84,SW,218,0.0,1.0,33,0.00,,,0.00,47,WeatherCatV1.21B27,2013-08-27 14:13:00,
2013-08-27 07:18:00,54.8,27.7,29.86,SW,218,0.0,0.0,35,0.00,,,0.00,39,WeatherCatV1.21B27,2013-08-27 14:18:00,
2013-08-27 07:23:00,54.8,24.8,29.86,SW,218,0.0,0.0,31,0.00,,,0.00,53,WeatherCatV1.21B27,2013-08-27 14:23:00,
2013-08-27 07:28:00,55.0,24.9,29.86,SW,218,1.0,1.0,31,0.00,,,0.00,93,WeatherCatV1.21B27,2013-08-27 14:28:00,
2013-08-27 07:33:00,55.1,28.0,29.86,SW,218,0.0,0.0,35,0.00,,,0.00,111,WeatherCatV1.21B27,2013-08-27 14:33:00,
2013-08-27 07:38:00,55.1,25.8,29.86,SW,218,2.0,2.0,32,0.00,,,0.00,123,WeatherCatV1.21B27,2013-08-27 14:38:00,
2013-08-27 07:43:00,55.3,24.4,29.86,SW,218,0.0,0.0,30,0.00,,,0.00,132,WeatherCatV1.21B27,2013-08-27 14:43:00,
2013-08-27 07:48:00,55.6,24.7,29.86,West,275,1.0,3.0,30,0.00,,,0.00,144,WeatherCatV1.21B27,2013-08-27 14:48:00,
2013-08-27 07:53:00,55.9,25.7,29.86,West,275,0.0,0.0,31,0.00,,,0.00,155,WeatherCatV1.21B27,2013-08-27 14:53:00,
2013-08-27 07:58:00,56.0,25.8,29.86,West,275,0.0,1.0,31,0.00,,,0.00,174,WeatherCatV1.21B27,2013-08-27 14:58:00,
2013-08-27 08:03:00,56.3,26.1,29.86,West,275,0.0,0.0,31,0.00,,,0.00,192,WeatherCatV1.21B27,2013-08-27 15:03:00,
2013-08-27 08:08:00,56.6,24.7,29.86,West,275,0.0,0.0,29,0.00,,,0.00,200,WeatherCatV1.21B27,2013-08-27 15:08:00,
2013-08-27 08:13:00,56.9,28.1,29.86,West,275,2.0,2.0,33,0.00,,,0.00,223,WeatherCatV1.21B27,2013-08-27 15:13:00,
2013-08-27 08:18:00,57.2,25.2,29.86,West,274,0.0,0.0,29,0.00,,,0.00,234,WeatherCatV1.21B27,2013-08-27 15:18:00,
2013-08-27 08:24:00,57.5,25.5,29.86,West,274,0.0,0.0,29,0.00,,,0.00,243,WeatherCatV1.21B27,2013-08-27 15:24:00,
2013-08-27 08:29:00,57.8,25.8,29.86,West,274,0.0,3.0,29,0.00,,,0.00,260,WeatherCatV1.21B27,2013-08-27 15:29:00,
2013-08-27 08:34:00,58.3,25.3,29.86,West,275,0.0,1.0,28,0.00,,,0.00,278,WeatherCatV1.21B27,2013-08-27 15:34:00,
2013-08-27 08:39:00,58.4,25.4,29.86,West,275,0.0,0.0,28,0.00,,,0.00,278,WeatherCatV1.21B27,2013-08-27 15:39:00,
2013-08-27 08:44:00,58.7,26.5,29.84,West,275,0.0,0.0,29,0.00,,,0.00,287,WeatherCatV1.21B27,2013-08-27 15:44:00,
2013-08-27 08:49:00,58.9,27.5,29.84,West,275,0.0,0.0,30,0.00,,,0.00,309,WeatherCatV1.21B27,2013-08-27 15:49:00,
2013-08-27 08:54:00,59.2,29.4,29.84,West,275,0.0,0.0,32,0.00,,,0.00,323,WeatherCatV1.21B27,2013-08-27 15:54:00,
2013-08-27 08:59:00,59.5,28.9,29.84,West,275,0.0,2.0,31,0.00,,,0.00,346,WeatherCatV1.21B27,2013-08-27 15:59:00,
2013-08-27 09:04:00,59.6,28.1,29.84,West,275,0.0,1.0,30,0.00,,,0.00,352,WeatherCatV1.21B27,2013-08-27 16:04:00,
2013-08-27 09:09:00,60.1,29.4,29.84,West,276,2.0,2.0,31,0.00,,,0.00,406,WeatherCatV1.21B27,2013-08-27 16:09:00,
2013-08-27 09:14:00,60.2,27.8,29.86,West,276,0.0,0.0,29,0.00,,,0.00,396,WeatherCatV1.21B27,2013-08-27 16:14:00,
2013-08-27 09:19:00,60.5,28.9,29.86,West,276,0.0,0.0,30,0.00,,,0.00,415,WeatherCatV1.21B27,2013-08-27 16:19:00,
2013-08-27 09:24:00,60.7,29.9,29.86,West,276,0.0,1.0,31,0.00,,,0.00,401,WeatherCatV1.21B27,2013-08-27 16:24:00,
2013-08-27 09:29:00,60.9,30.1,29.84,West,276,0.0,1.0,31,0.00,,,0.00,417,WeatherCatV1.21B27,2013-08-27 16:29:00,
2013-08-27 09:34:00,61.0,30.1,29.84,West,276,0.0,0.0,31,0.00,,,0.00,436,WeatherCatV1.21B27,2013-08-27 16:34:00,
2013-08-27 09:39:00,61.2,30.3,29.84,West,276,1.0,2.0,31,0.00,,,0.00,476,WeatherCatV1.21B27,2013-08-27 16:39:00,
2013-08-27 09:44:00,61.3,31.2,29.84,West,276,0.0,0.0,32,0.00,,,0.00,480,WeatherCatV1.21B27,2013-08-27 16:44:00,
2013-08-27 09:49:00,61.6,31.5,29.84,West,276,0.0,0.0,32,0.00,,,0.00,527,WeatherCatV1.21B27,2013-08-27 16:49:00,
2013-08-27 09:54:00,62.0,32.6,29.84,NW,314,0.0,1.0,33,0.00,,,0.00,436,WeatherCatV1.21B27,2013-08-27 16:54:00,
2013-08-27 09:59:00,62.7,30.0,29.83,ESE,113,0.0,1.0,29,0.00,,,0.00,526,WeatherCatV1.21B27,2013-08-27 16:59:00,
2013-08-27 10:04:00,64.0,30.2,29.83,SSE,162,5.0,5.0,28,0.00,,,0.00,492,WeatherCatV1.21B27,2013-08-27 17:04:00,
2013-08-27 10:09:00,64.7,30.0,29.83,SSE,149,5.0,7.0,27,0.00,,,0.00,501,WeatherCatV1.21B27,2013-08-27 17:09:00,
2013-08-27 10:14:00,65.3,30.5,29.81,ESE,106,0.0,6.0,27,0.00,,,0.00,524,WeatherCatV1.21B27,2013-08-27 17:14:00,
2013-08-27 10:19:00,66.3,31.3,29.81,ESE,107,1.0,4.0,27,0.00,,,0.00,487,WeatherCatV1.21B27,2013-08-27 17:19:00,
2013-08-27 10:24:00,66.9,30.9,29.81,ESE,114,0.0,0.0,26,0.00,,,0.00,513,WeatherCatV1.21B27,2013-08-27 17:24:00,
2013-08-27 10:33:00,67.4,33.2,29.79,ENE,78,0.0,3.0,28,0.00,,,0.00,619,WeatherCatV1.21B27,2013-08-27 17:33:00,
2013-08-27 10:38:00,67.8,32.6,29.79,East,89,0.0,3.0,27,0.00,,,0.00,666,WeatherCatV1.21B27,2013-08-27 17:38:00,
2013-08-27 10:43:00,68.4,32.2,29.79,SE,129,0.0,0.0,26,0.00,,,0.00,705,WeatherCatV1.21B27,2013-08-27 17:43:00,
2013-08-27 10:48:00,69.1,32.8,29.78,East,84,4.0,4.0,26,0.00,,,0.00,691,WeatherCatV1.21B27,2013-08-27 17:48:00,
2013-08-27 10:53:00,69.8,33.4,29.78,ESE,114,3.0,5.0,26,0.00,,,0.00,728,WeatherCatV1.21B27,2013-08-27 17:53:00,
2013-08-27 10:58:00,70.1,33.6,29.78,SE,133,1.0,3.0,26,0.00,,,0.00,737,WeatherCatV1.21B27,2013-08-27 17:58:00,
2013-08-27 11:03:00,70.1,32.6,29.77,ENE,77,0.0,3.0,25,0.00,,,0.00,768,WeatherCatV1.21B27,2013-08-27 18:03:00,
2013-08-27 11:08:00,69.8,35.2,29.77,WNW,298,4.0,5.0,28,0.00,,,0.00,705,WeatherCatV1.21B27,2013-08-27 18:08:00,
2013-08-27 11:13:00,68.8,34.4,29.77,NW,307,3.0,6.0,28,0.00,,,0.00,652,WeatherCatV1.21B27,2013-08-27 18:13:00,
2013-08-27 11:18:00,67.6,35.1,29.78,North,5,3.0,4.0,30,0.00,,,0.00,664,WeatherCatV1.21B27,2013-08-27 18:18:00,
2013-08-27 11:23:00,66.9,35.3,29.78,NNW,334,1.0,3.0,31,0.00,,,0.00,652,WeatherCatV1.21B27,2013-08-27 18:23:00,
2013-08-27 11:28:00,66.6,35.8,29.78,WNW,283,2.0,6.0,32,0.00,,,0.00,712,WeatherCatV1.21B27,2013-08-27 18:28:00,
2013-08-27 11:33:00,66.1,36.9,29.79,WNW,298,0.0,2.0,34,0.00,,,0.00,206,WeatherCatV1.21B27,2013-08-27 18:33:00,
2013-08-27 11:38:00,65.8,37.4,29.79,WNW,297,0.0,2.0,35,0.00,,,0.00,728,WeatherCatV1.21B27,2013-08-27 18:38:00,
2013-08-27 11:43:00,65.8,37.4,29.79,WNW,283,0.0,5.0,35,0.00,,,0.00,684,WeatherCatV1.21B27,2013-08-27 18:43:00,
2013-08-27 11:48:00,65.8,38.1,29.78,WNW,293,3.0,7.0,36,0.00,,,0.00,202,WeatherCatV1.21B27,2013-08-27 18:48:00,
2013-08-27 11:53:00,65.6,37.9,29.78,WNW,293,0.0,3.0,36,0.00,,,0.00,290,WeatherCatV1.21B27,2013-08-27 18:53:00,
2013-08-27 11:58:00,65.6,39.3,29.78,WNW,293,0.0,4.0,38,0.00,,,0.00,283,WeatherCatV1.21B27,2013-08-27 18:58:00,
2013-08-27 12:03:00,65.5,37.8,29.78,WNW,293,0.0,4.0,36,0.00,,,0.00,264,WeatherCatV1.21B27,2013-08-27 19:03:00,
2013-08-27 12:08:00,65.3,38.3,29.78,WNW,293,0.0,1.0,37,0.00,,,0.00,318,WeatherCatV1.21B27,2013-08-27 19:08:00,
2013-08-27 12:13:00,65.5,38.5,29.78,WNW,293,0.0,0.0,37,0.00,,,0.00,772,WeatherCatV1.21B27,2013-08-27 19:13:00,
2013-08-27 12:18:00,66.1,38.4,29.80,WNW,293,0.0,3.0,36,0.00,,,0.00,278,WeatherCatV1.21B27,2013-08-27 19:18:00,
2013-08-27 12:23:00,66.4,37.9,29.80,NW,315,0.0,2.0,35,0.00,,,0.00,308,WeatherCatV1.21B27,2013-08-27 19:23:00,
2013-08-27 12:28:00,66.6,38.8,29.80,NW,316,1.0,6.0,36,0.00,,,0.00,294,WeatherCatV1.21B27,2013-08-27 19:28:00,
2013-08-27 12:33:00,66.6,39.5,29.77,NW,316,0.0,0.0,37,0.00,,,0.00,278,WeatherCatV1.21B27,2013-08-27 19:33:00,
2013-08-27 12:38:00,66.8,39.0,29.77,WNW,288,0.0,2.0,36,0.00,,,0.00,304,WeatherCatV1.21B27,2013-08-27 19:38:00,
2013-08-27 12:43:00,66.6,38.1,29.77,WNW,297,0.0,2.0,35,0.00,,,0.00,308,WeatherCatV1.21B27,2013-08-27 19:43:00,
2013-08-27 12:48:00,66.4,38.6,29.77,NW,321,0.0,4.0,36,0.00,,,0.00,292,WeatherCatV1.21B27,2013-08-27 19:48:00,
2013-08-27 12:53:00,66.4,38.6,29.77,NW,309,0.0,7.0,36,0.00,,,0.00,338,WeatherCatV1.21B27,2013-08-27 19:53:00,
2013-08-27 12:58:00,66.3,38.5,29.77,WNW,293,3.0,5.0,36,0.00,,,0.00,304,WeatherCatV1.21B27,2013-08-27 19:58:00,
2013-08-27 13:03:00,66.3,38.5,29.78,NNW,337,1.0,3.0,36,0.00,,,0.00,283,WeatherCatV1.21B27,2013-08-27 20:03:00,
2013-08-27 13:08:00,66.3,39.2,29.78,NW,316,2.0,5.0,37,0.00,,,0.00,255,WeatherCatV1.21B27,2013-08-27 20:08:00,
2013-08-27 13:13:00,66.1,39.1,29.78,NW,315,0.0,0.0,37,0.00,,,0.00,338,WeatherCatV1.21B27,2013-08-27 20:13:00,
2013-08-27 13:18:00,66.4,39.3,29.78,WNW,283,6.0,6.0,37,0.00,,,0.00,246,WeatherCatV1.21B27,2013-08-27 20:18:00,
2013-08-27 13:23:00,66.4,39.3,29.78,WNW,301,3.0,5.0,37,0.00,,,0.00,288,WeatherCatV1.21B27,2013-08-27 20:23:00,
2013-08-27 13:28:00,66.3,39.9,29.78,NW,304,3.0,5.0,38,0.00,,,0.00,279,WeatherCatV1.21B27,2013-08-27 20:28:00,
2013-08-27 13:33:00,66.3,39.9,29.78,WNW,293,2.0,6.0,38,0.00,,,0.00,336,WeatherCatV1.21B27,2013-08-27 20:33:00,
2013-08-27 13:38:00,66.1,39.1,29.78,WNW,283,2.0,5.0,37,0.00,,,0.00,309,WeatherCatV1.21B27,2013-08-27 20:38:00,
2013-08-27 13:43:00,66.3,39.2,29.78,West,279,0.0,3.0,37,0.00,,,0.00,299,WeatherCatV1.21B27,2013-08-27 20:43:00,
2013-08-27 13:48:00,66.3,39.9,29.78,WNW,301,0.0,0.0,38,0.00,,,0.00,267,WeatherCatV1.21B27,2013-08-27 20:48:00,
2013-08-27 13:53:00,66.4,39.3,29.78,WNW,293,2.0,4.0,37,0.00,,,0.00,538,WeatherCatV1.21B27,2013-08-27 20:53:00,
2013-08-27 13:58:00,66.6,39.5,29.78,WNW,288,1.0,6.0,37,0.00,,,0.00,251,WeatherCatV1.21B27,2013-08-27 20:58:00,
2013-08-27 14:03:00,66.6,38.8,29.77,WNW,293,6.0,6.0,36,0.00,,,0.00,265,WeatherCatV1.21B27,2013-08-27 21:03:00,
2013-08-27 14:08:00,66.4,39.3,29.77,WNW,293,5.0,6.0,37,0.00,,,0.00,478,WeatherCatV1.21B27,2013-08-27 21:08:00,
2013-08-27 14:14:00,66.4,39.3,29.77,WNW,303,3.0,5.0,37,0.00,,,0.00,276,WeatherCatV1.21B27,2013-08-27 21:14:00,
2013-08-27 14:19:00,66.3,39.9,29.78,WNW,301,4.0,7.0,38,0.00,,,0.00,320,WeatherCatV1.21B27,2013-08-27 21:19:00,
2013-08-27 14:25:00,66.3,39.2,29.78,West,279,6.0,9.0,37,0.00,,,0.00,427,WeatherCatV1.21B27,2013-08-27 21:25:00,
2013-08-27 14:30:00,66.3,39.9,29.77,NW,306,7.0,12.0,38,0.00,,,0.00,490,WeatherCatV1.21B27,2013-08-27 21:30:00,
2013-08-27 14:35:00,66.3,40.6,29.77,West,272,5.0,10.0,39,0.00,,,0.00,527,WeatherCatV1.21B27,2013-08-27 21:35:00,
2013-08-27 14:40:00,66.4,39.3,29.77,West,278,9.0,11.0,37,0.00,,,0.00,492,WeatherCatV1.21B27,2013-08-27 21:40:00,
2013-08-27 14:47:00,66.3,39.2,29.77,NW,305,11.0,12.0,37,0.00,,,0.00,294,WeatherCatV1.21B27,2013-08-27 21:47:00,
2013-08-27 14:52:00,66.1,39.1,29.77,WNW,293,7.0,12.0,37,0.00,,,0.00,471,WeatherCatV1.21B27,2013-08-27 21:52:00,
2013-08-27 14:57:00,66.1,39.1,29.77,WNW,303,14.0,15.0,37,0.00,,,0.00,471,WeatherCatV1.21B27,2013-08-27 21:57:00,
2013-08-27 15:02:00,66.1,38.4,29.76,WNW,303,11.0,15.0,36,0.00,,,0.00,403,WeatherCatV1.21B27,2013-08-27 22:02:00,
2013-08-27 15:07:00,66.1,39.1,29.76,WNW,297,10.0,14.0,37,0.00,,,0.00,399,WeatherCatV1.21B27,2013-08-27 22:07:00,
2013-08-27 15:12:00,65.8,38.8,29.76,West,270,6.0,15.0,37,0.00,,,0.00,396,WeatherCatV1.21B27,2013-08-27 22:12:00,
2013-08-27 15:17:00,65.8,38.8,29.76,WNW,293,12.0,18.0,37,0.00,,,0.00,385,WeatherCatV1.21B27,2013-08-27 22:17:00,
2013-08-27 15:22:00,65.6,39.3,29.76,West,270,8.0,15.0,38,0.00,,,0.00,348,WeatherCatV1.21B27,2013-08-27 22:22:00,
2013-08-27 15:27:00,65.3,39.0,29.76,WNW,299,4.0,18.0,38,0.00,,,0.00,346,WeatherCatV1.21B27,2013-08-27 22:27:00,
2013-08-27 15:32:00,65.2,39.0,29.76,West,270,9.0,17.0,38,0.00,,,0.00,346,WeatherCatV1.21B27,2013-08-27 22:32:00,
2013-08-27 15:37:00,65.0,39.4,29.76,WNW,293,6.0,16.0,39,0.00,,,0.00,325,WeatherCatV1.21B27,2013-08-27 22:37:00,
2013-08-27 15:42:00,64.8,39.9,29.76,WNW,301,11.0,19.0,40,0.00,,,0.00,357,WeatherCatV1.21B27,2013-08-27 22:42:00,
2013-08-27 15:47:00,64.7,39.8,29.75,WSW,252,11.0,17.0,40,0.00,,,0.00,376,WeatherCatV1.21B27,2013-08-27 22:47:00,
2013-08-27 15:52:00,64.7,39.8,29.75,WSW,247,10.0,14.0,40,0.00,,,0.00,330,WeatherCatV1.21B27,2013-08-27 22:52:00,
2013-08-27 15:57:00,64.7,39.2,29.75,West,273,6.0,16.0,39,0.00,,,0.00,350,WeatherCatV1.21B27,2013-08-27 22:57:00,
2013-08-27 16:02:00,64.7,38.5,29.75,WNW,288,4.0,17.0,38,0.00,,,0.00,343,WeatherCatV1.21B27,2013-08-27 23:02:00,
2013-08-27 16:07:00,64.7,38.5,29.75,West,263,7.0,13.0,38,0.00,,,0.00,287,WeatherCatV1.21B27,2013-08-27 23:07:00,
2013-08-27 16:12:00,64.7,38.5,29.75,West,275,8.0,15.0,38,0.00,,,0.00,276,WeatherCatV1.21B27,2013-08-27 23:12:00,
2013-08-27 16:17:00,64.5,38.3,29.75,NW,304,11.0,15.0,38,0.00,,,0.00,199,WeatherCatV1.21B27,2013-08-27 23:17:00,
2013-08-27 16:22:00,64.3,38.8,29.75,West,270,6.0,14.0,39,0.00,,,0.00,294,WeatherCatV1.21B27,2013-08-27 23:22:00,
2013-08-27 16:27:00,64.5,39.0,29.75,WSW,255,9.0,16.0,39,0.00,,,0.00,306,WeatherCatV1.21B27,2013-08-27 23:27:00,
2013-08-27 16:32:00,64.7,39.8,29.75,WNW,283,8.0,10.0,40,0.00,,,0.00,318,WeatherCatV1.21B27,2013-08-27 23:32:00,
2013-08-27 16:37:00,64.7,39.2,29.75,WNW,297,12.0,13.0,39,0.00,,,0.00,345,WeatherCatV1.21B27,2013-08-27 23:37:00,
2013-08-27 16:42:00,64.7,39.8,29.75,West,274,5.0,13.0,40,0.00,,,0.00,334,WeatherCatV1.21B27,2013-08-27 23:42:00,
2013-08-27 16:47:00,64.7,40.5,29.75,WSW,243,3.0,11.0,41,0.00,,,0.00,304,WeatherCatV1.21B27,2013-08-27 23:47:00,
2013-08-27 16:52:00,64.8,40.5,29.75,West,278,10.0,15.0,41,0.00,,,0.00,265,WeatherCatV1.21B27,2013-08-27 23:52:00,
2013-08-27 16:57:00,64.7,40.5,29.75,West,273,5.0,15.0,41,0.00,,,0.00,276,WeatherCatV1.21B27,2013-08-27 23:57:00,
2013-08-27 17:02:00,64.5,40.3,29.75,West,261,11.0,12.0,41,0.00,,,0.00,244,WeatherCatV1.21B27,2013-08-28 00:02:00,
2013-08-27 17:07:00,64.3,40.7,29.75,West,274,5.0,10.0,42,0.00,,,0.00,253,WeatherCatV1.21B27,2013-08-28 00:07:00,
2013-08-27 17:12:00,64.3,40.7,29.75,West,264,9.0,14.0,42,0.00,,,0.00,255,WeatherCatV1.21B27,2013-08-28 00:12:00,
2013-08-27 17:17:00,64.3,40.7,29.76,West,261,5.0,10.0,42,0.00,,,0.00,186,WeatherCatV1.21B27,2013-08-28 00:17:00,
2013-08-27 17:22:00,64.2,40.6,29.76,NNW,330,7.0,13.0,42,0.00,,,0.00,227,WeatherCatV1.21B27,2013-08-28 00:22:00,
2013-08-27 17:27:00,64.2,40.6,29.76,NW,321,10.0,15.0,42,0.00,,,0.00,209,WeatherCatV1.21B27,2013-08-28 00:27:00,
2013-08-27 17:32:00,63.9,41.0,29.76,WNW,293,9.0,15.0,43,0.00,,,0.00,144,WeatherCatV1.21B27,2013-08-28 00:32:00,
2013-08-27 17:37:00,63.7,40.8,29.76,SW,236,11.0,15.0,43,0.00,,,0.00,109,WeatherCatV1.21B27,2013-08-28 00:37:00,
2013-08-27 17:42:00,63.4,41.7,29.76,NW,309,13.0,19.0,45,0.00,,,0.00,98,WeatherCatV1.21B27,2013-08-28 00:42:00,
2013-08-27 17:47:00,62.9,42.4,29.77,WNW,288,12.0,19.0,47,0.00,,,0.00,113,WeatherCatV1.21B27,2013-08-28 00:47:00,
2013-08-27 17:52:00,62.6,42.6,29.77,WNW,301,13.0,14.0,48,0.00,,,0.00,113,WeatherCatV1.21B27,2013-08-28 00:52:00,
2013-08-27 17:57:00,62.4,43.0,29.77,NW,317,15.0,15.0,49,0.00,,,0.00,97,WeatherCatV1.21B27,2013-08-28 00:57:00,
2013-08-27 18:02:00,62.1,42.7,29.77,West,259,11.0,18.0,49,0.00,,,0.00,98,WeatherCatV1.21B27,2013-08-28 01:02:00,
2013-08-27 18:07:00,62.0,42.1,29.77,WNW,288,13.0,17.0,48,0.00,,,0.00,98,WeatherCatV1.21B27,2013-08-28 01:07:00,
2013-08-27 18:12:00,61.8,41.9,29.77,NW,316,10.0,18.0,48,0.00,,,0.00,77,WeatherCatV1.21B27,2013-08-28 01:12:00,
2013-08-27 18:17:00,61.5,41.6,29.77,West,263,11.0,18.0,48,0.00,,,0.00,63,WeatherCatV1.21B27,2013-08-28 01:17:00,
2013-08-27 18:22:00,61.3,42.0,29.77,WNW,288,12.0,15.0,49,0.00,,,0.00,62,WeatherCatV1.21B27,2013-08-28 01:22:00,
2013-08-27 18:27:00,61.2,41.9,29.77,WNW,293,10.0,16.0,49,0.00,,,0.00,51,WeatherCatV1.21B27,2013-08-28 01:27:00,
2013-08-27 18:32:00,61.0,42.7,29.77,West,270,12.0,16.0,51,0.00,,,0.00,44,WeatherCatV1.21B27,2013-08-28 01:32:00,
2013-08-27 18:38:00,60.7,41.4,29.77,NW,314,7.0,16.0,49,0.00,,,0.00,39,WeatherCatV1.21B27,2013-08-28 01:38:00,
2013-08-27 18:43:00,60.5,41.8,29.77,West,270,10.0,16.0,50,0.00,,,0.00,30,WeatherCatV1.21B27,2013-08-28 01:43:00,
2013-08-27 18:48:00,60.4,41.2,29.77,West,274,9.0,15.0,49,0.00,,,0.00,26,WeatherCatV1.21B27,2013-08-28 01:48:00,
2013-08-27 18:53:00,60.4,41.2,29.77,NW,313,7.0,13.0,49,0.00,,,0.00,26,WeatherCatV1.21B27,2013-08-28 01:53:00,
2013-08-27 18:58:00,60.2,41.5,29.77,West,266,10.0,10.0,50,0.00,,,0.00,25,WeatherCatV1.21B27,2013-08-28 01:58:00,
2013-08-27 19:03:00,60.1,41.4,29.79,NW,318,8.0,12.0,50,0.00,,,0.00,23,WeatherCatV1.21B27,2013-08-28 02:03:00,
2013-08-27 19:08:00,59.9,40.7,29.79,WNW,293,5.0,12.0,49,0.00,,,0.00,21,WeatherCatV1.21B27,2013-08-28 02:08:00,
2013-08-27 19:13:00,59.8,40.6,29.79,NW,315,7.0,14.0,49,0.00,,,0.00,16,WeatherCatV1.21B27,2013-08-28 02:13:00,
2013-08-27 19:18:00,59.5,40.8,29.78,West,274,12.0,15.0,50,0.00,,,0.00,11,WeatherCatV1.21B27,2013-08-28 02:18:00,
2013-08-27 19:23:00,59.3,40.7,29.78,WNW,283,2.0,11.0,50,0.00,,,0.00,7,WeatherCatV1.21B27,2013-08-28 02:23:00,
2013-08-27 19:29:00,59.2,40.6,29.78,NW,315,10.0,12.0,50,0.00,,,0.00,5,WeatherCatV1.21B27,2013-08-28 02:29:00,
2013-08-27 19:34:00,59.0,40.9,29.80,NW,312,6.0,11.0,51,0.00,,,0.00,0,WeatherCatV1.21B27,2013-08-28 02:34:00,
2013-08-27 19:39:00,58.9,40.8,29.80,WNW,303,6.0,8.0,51,0.00,,,0.00,0,WeatherCatV1.21B27,2013-08-28 02:39:00,
2013-08-27 19:44:00,58.7,41.1,29.80,WNW,283,5.0,7.0,52,0.00,,,0.00,0,WeatherCatV1.21B27,2013-08-28 02:44:00,
2013-08-27 19:49:00,58.6,41.0,29.80,WNW,303,7.0,7.0,52,0.00,,,0.00,0,WeatherCatV1.21B27,2013-08-28 02:49:00,
2013-08-27 19:54:00,58.4,40.8,29.80,NNW,342,5.0,10.0,52,0.00,,,0.00,0,WeatherCatV1.21B27,2013-08-28 02:54:00,
2013-08-27 19:59:00,58.4,40.8,29.80,North,349,5.0,7.0,52,0.00,,,0.00,0,WeatherCatV1.21B27,2013-08-28 02:59:00,
2013-08-27 20:04:00,58.3,41.2,29.80,NNW,347,3.0,8.0,53,0.00,,,0.00,0,WeatherCatV1.21B27,2013-08-28 03:04:00,
2013-08-27 20:09:00,58.1,41.1,29.80,North,353,4.0,12.0,53,0.00,,,0.00,0,WeatherCatV1.21B27,2013-08-28 03:09:00,
2013-08-27 20:14:00,57.8,41.3,29.77,WNW,301,4.0,6.0,54,0.00,,,0.00,0,WeatherCatV1.21B27,2013-08-28 03:14:00,
2013-08-27 20:19:00,57.6,42.0,29.77,WNW,301,9.0,11.0,56,0.00,,,0.00,0,WeatherCatV1.21B27,2013-08-28 03:19:00,
2013-08-27 20:24:00,57.3,41.7,29.77,North,352,4.0,12.0,56,0.00,,,0.00,0,WeatherCatV1.21B27,2013-08-28 03:24:00,
2013-08-27 20:29:00,57.2,41.2,29.78,NW,318,4.0,13.0,55,0.00,,,0.00,0,WeatherCatV1.21B27,2013-08-28 03:29:00,
2013-08-27 20:34:00,57.0,41.5,29.78,WNW,283,6.0,13.0,56,0.00,,,0.00,0,WeatherCatV1.21B27,2013-08-28 03:34:00,
2013-08-27 20:39:00,56.9,41.4,29.78,North,351,4.0,6.0,56,0.00,,,0.00,0,WeatherCatV1.21B27,2013-08-28 03:39:00,
2013-08-27 20:44:00,56.9,41.4,29.79,West,272,2.0,4.0,56,0.00,,,0.00,0,WeatherCatV1.21B27,2013-08-28 03:44:00,
2013-08-27 20:49:00,56.7,41.2,29.79,NW,305,7.0,10.0,56,0.00,,,0.00,0,WeatherCatV1.21B27,2013-08-28 03:49:00,
2013-08-27 20:54:00,56.6,40.6,29.79,NW,321,5.0,6.0,55,0.00,,,0.00,0,WeatherCatV1.21B27,2013-08-28 03:54:00,
2013-08-27 20:59:00,56.5,40.5,29.80,NW,316,1.0,5.0,55,0.00,,,0.00,0,WeatherCatV1.21B27,2013-08-28 03:59:00,
2013-08-27 21:01:00,56.5,39.6,29.80,NW,316,0.0,5.0,53,0.00,,,0.00,0,WeatherCatV1.21B27,2013-08-28 04:01:00,
2013-08-27 21:04:00,56.3,40.3,29.80,WNW,283,3.0,4.0,55,0.00,,,0.00,0,WeatherCatV1.21B27,2013-08-28 04:04:00,
2013-08-27 21:06:00,56.3,40.3,29.80,West,270,5.0,7.0,55,0.00,,,0.00,0,WeatherCatV1.21B27,2013-08-28 04:06:00,
2013-08-27 21:09:00,56.2,40.2,29.80,WNW,300,5.0,9.0,55,0.00,,,0.00,0,WeatherCatV1.21B27,2013-08-28 04:09:00,
2013-08-27 21:14:00,56.2,40.2,29.79,NW,306,5.0,7.0,55,0.00,,,0.00,0,WeatherCatV1.21B27,2013-08-28 04:14:00,
2013-08-27 21:15:00,56.2,40.2,29.79,NW,305,5.0,7.0,55,0.00,,,0.00,0,WeatherCatV1.21B27,2013-08-28 04:15:00,
2013-08-27 21:20:00,56.0,40.1,29.79,WNW,297,4.0,7.0,55,0.00,,,0.00,0,WeatherCatV1.21B27,2013-08-28 04:20:00,
2013-08-27 21:22:00,56.0,40.1,29.79,WNW,301,3.0,6.0,55,0.00,,,0.00,0,WeatherCatV1.21B27,2013-08-28 04:22:00,
2013-08-27 21:27:00,55.9,40.4,29.79,NW,307,4.0,5.0,56,0.00,,,0.00,0,WeatherCatV1.21B27,2013-08-28 04:27:00,
2013-08-27 21:32:00,55.7,40.2,29.79,NW,305,3.0,4.0,56,0.00,,,0.00,0,WeatherCatV1.21B27,2013-08-28 04:32:00,
2013-08-27 21:37:00,55.4,40.0,29.79,NNW,341,0.0,2.0,56,0.00,,,0.00,0,WeatherCatV1.21B27,2013-08-28 04:37:00,
2013-08-27 21:42:00,55.6,39.7,29.79,NNW,332,1.0,4.0,55,0.00,,,0.00,0,WeatherCatV1.21B27,2013-08-28 04:42:00,
2013-08-27 21:47:00,55.4,40.0,29.79,WNW,299,7.0,7.0,56,0.00,,,0.00,0,WeatherCatV1.21B27,2013-08-28 04:47:00,
2013-08-27 21:52:00,55.3,40.3,29.79,WNW,299,5.0,10.0,57,0.00,,,0.00,0,WeatherCatV1.21B27,2013-08-28 04:52:00,
2013-08-27 21:57:00,55.1,40.1,29.79,WNW,293,4.0,8.0,57,0.00,,,0.00,0,WeatherCatV1.21B27,2013-08-28 04:57:00,
2013-08-27 22:02:00,55.0,40.0,29.79,WNW,297,6.0,7.0,57,0.00,,,0.00,0,WeatherCatV1.21B27,2013-08-28 05:02:00,
2013-08-27 22:07:00,54.7,40.2,29.79,West,276,0.0,6.0,58,0.00,,,0.00,0,WeatherCatV1.21B27,2013-08-28 05:07:00,
2013-08-27 22:12:00,54.5,40.0,29.79,WNW,283,4.0,6.0,58,0.00,,,0.00,0,WeatherCatV1.21B27,2013-08-28 05:12:00,
2013-08-27 22:17:00,54.5,40.0,29.75,WNW,283,4.0,5.0,58,0.00,,,0.00,0,WeatherCatV1.21B27,2013-08-28 05:17:00,
2013-08-27 22:22:00,54.5,40.0,29.75,WNW,283,0.0,4.0,58,0.00,,,0.00,0,WeatherCatV1.21B27,2013-08-28 05:22:00,
2013-08-27 22:27:00,54.7,40.2,29.75,WNW,283,0.0,3.0,58,0.00,,,0.00,0,WeatherCatV1.21B27,2013-08-28 05:27:00,
2013-08-27 22:32:00,54.8,40.3,29.75,WNW,283,4.0,4.0,58,0.00,,,0.00,0,WeatherCatV1.21B27,2013-08-28 05:32:00,
2013-08-27 22:37:00,55.1,40.6,29.75,SSW,193,0.0,10.0,58,0.00,,,0.00,0,WeatherCatV1.21B27,2013-08-28 05:37:00,
2013-08-27 22:42:00,55.4,41.3,29.75,South,172,0.0,9.0,59,0.00,,,0.00,0,WeatherCatV1.21B27,2013-08-28 05:42:00,
2013-08-27 22:47:00,55.7,41.6,29.73,South,178,0.0,10.0,59,0.00,,,0.00,0,WeatherCatV1.21B27,2013-08-28 05:47:00,
2013-08-27 22:52:00,56.0,41.9,29.73,SSE,164,2.0,4.0,59,0.00,,,0.00,0,WeatherCatV1.21B27,2013-08-28 05:52:00,
2013-08-27 22:57:00,56.3,41.7,29.73,South,184,0.0,5.0,58,0.00,,,0.00,0,WeatherCatV1.21B27,2013-08-28 05:57:00,
2013-08-27 23:02:00,56.5,41.5,29.73,South,183,3.0,4.0,57,0.00,,,0.00,0,WeatherCatV1.21B27,2013-08-28 06:02:00,
2013-08-27 23:07:00,56.6,41.5,29.73,South,181,0.0,5.0,57,0.00,,,0.00,0,WeatherCatV1.21B27,2013-08-28 06:07:00,
2013-08-27 23:12:00,56.7,41.6,29.73,South,170,0.0,1.0,57,0.00,,,0.00,0,WeatherCatV1.21B27,2013-08-28 06:12:00,
2013-08-27 23:17:00,56.6,41.5,29.76,South,174,0.0,3.0,57,0.00,,,0.00,0,WeatherCatV1.21B27,2013-08-28 06:17:00,
2013-08-27 23:22:00,56.6,41.5,29.76,South,174,0.0,0.0,57,0.00,,,0.00,0,WeatherCatV1.21B27,2013-08-28 06:22:00,
2013-08-27 23:27:00,56.6,42.0,29.76,South,174,0.0,0.0,58,0.00,,,0.00,0,WeatherCatV1.21B27,2013-08-28 06:27:00,
2013-08-27 23:32:00,56.6,42.0,29.76,South,185,0.0,0.0,58,0.00,,,0.00,0,WeatherCatV1.21B27,2013-08-28 06:32:00,
2013-08-27 23:37:00,56.6,42.0,29.76,South,185,1.0,2.0,58,0.00,,,0.00,0,WeatherCatV1.21B27,2013-08-28 06:37:00,
2013-08-27 23:42:00,56.6,41.5,29.76,South,185,0.0,3.0,57,0.00,,,0.00,0,WeatherCatV1.21B27,2013-08-28 06:42:00,
2013-08-27 23:47:00,56.6,42.0,29.76,West,265,0.0,1.0,58,0.00,,,0.00,0,WeatherCatV1.21B27,2013-08-28 06:47:00,
2013-08-27 23:52:00,56.6,41.5,29.76,WNW,298,0.0,0.0,57,0.00,,,0.00,0,WeatherCatV1.21B27,2013-08-28 06:52:00,
2013-08-27 23:57:00,56.6,42.0,29.76,WNW,283,0.0,0.0,58,0.00,,,0.00,0,WeatherCatV1.21B27,2013-08-28 06:57:00,